CAPE
0 0 0 0 0 0 0 2 1 3 1 1 2 1 2 3 2 1 0 0 0 0 0 0 0 0 0 0 0 0 0 0 0 0 0 0 0 0 0 0 0 0 60 70 281
0 0 0 0 0 0 0 0 1 1 1 2 2 2 1 1 0 0 0 0 0 0 0 0 0 0 0 0 0 0 0 0 0 0 0 0 0 0 0 0 0 0 0 0 399
0 0 0 0 0 0 0 0 2 2 2 0 1 2 3 0 0 0 0 0 0 0 0 0 0 0 0 0 0 0 0 0 0 0 0 0 0 0 0 0 0 0 0 0 13
0 0 0 0 0 0 0 0 0 2 2 1 1 1 1 1 0 0 0 0 0 0 0 0 0 0 0 0 0 0 0 0 0 0 0 0 0 0 0 0 0 0 0 0 0
0 0 0 0 0 0 0 0 2 0 1 1 1 2 1 0 0 0 0 160 0 0 0 0 0 0 0 0 0 0 0 0 0 0 0 0 0 0 0 0 0 0 0 0 0
0 0 0 0 0 0 0 0 0 4 1 2 2 2 0 0 0 0 0 0 0 0 0 0 0 0 0 0 0 0 0 0 0 0 0 0 0 0 0 0 0 0 0 0 0
1 1 0 0 0 0 1 2 1 2 1 1 2 1 0 0 0 0 0 0 0 0 0 0 0 0 0 0 0 0 0 0 0 0 0 0 0 0 0 0 0 0 0 0 0
1 2 0 0 0 0 1 1 1 1 1 0 2 0 0 0 0 0 0 0 0 0 0 0 0 0 0 0 0 0 0 0 0 0 0 0 0 0 0 0 0 0 0 0 0
3 4 0 0 1 2 1 0 2 0 1 1 0 0 0 0 0 0 0 0 0 0 0 0 0 0 0 0 0 0 0 0 0 0 0 0 0 0 0 0 0 0 0 0 0
1 1 1 0 2 2 3 0 0 0 0 3 0 0 0 0 0 0 0 0 0 0 0 0 0 0 0 0 0 0 0 0 0 0 0 0 0 0 0 0 0 0 0 0 0
1 2 1 0 0 3 3 0 0 0 0 0 0 0 0 0 0 0 0 0 0 0 0 0 0 0 0 0 0 0 0 0 0 0 0 0 0 0 0 0 0 0 0 0 0
1 0 0 2 1 2 3 0 0 0 0 0 0 0 0 0 0 0 0 0 0 0 0 0 0 0 0 0 0 0 0 0 0 0 0 0 0 0 0 0 0 0 0 0 0
1 0 1 1 1 0 0 0 0 0 0 0 0 0 0 0 0 0 0 0 0 0 0 0 0 0 0 0 0 0 0 0 0 0 0 0 0 0 0 0 0 0 0 0 0
0 0 1 1 0 0 0 0 0 0 0 0 0 0 0 0 0 0 0 0 0 0 0 0 0 0 0 0 0 0 0 0 0 0 0 0 0 0 0 0 0 0 0 0 0
0 1 2 3 0 0 0 0 0 0 0 0 0 0 0 0 0 0 0 0 0 0 0 0 0 0 0 0 0 0 0 0 0 0 0 0 0 0 0 0 0 0 0 0 0
0 0 1 0 1 0 0 0 0 0 0 0 0 0 0 0 0 0 0 0 0 0 0 0 0 0 0 0 0 0 0 0 0 0 0 0 0 0 0 0 0 0 0 0 0
0 0 1 0 0 0 0 0 0 0 3 0 0 0 0 0 0 0 0 0 0 0 0 0 0 0 0 0 0 0 0 0 0 0 0 0 0 0 0 0 0 0 0 0 0
0 0 0 0 0 0 0 0 0 4 42 9 0 0 0 0 0 0 0 0 0 0 0 0 0 0 0 0 0 0 0 0 0 0 0 0 0 0 0 0 0 0 0 0 0
0 0 0 0 0 0 0 0 0 25 3 0 0 0 0 0 0 0 0 0 0 0 0 0 0 0 0 0 0 0 0 0 0 0 0 0 0 0 0 0 0 0 0 0 0
0 0 0 0 0 0 0 0 33 43 0 0 0 0 0 0 8 0 0 0 0 0 0 0 0 0 0 0 0 0 0 0 0 0 0 0 0 0 0 0 0 0 0 0 0
0 0 2 0 0 0 0 2 13 38 40 0 0 0 0 0 2 5 7 0 0 0 0 0 0 0 0 0 0 0 0 0 0 0 0 0 0 0 0 0 0 0 0 0 0
0 0 13 0 21 1 0 0 1 79 193 0 0 0 0 0 0 0 2 10 0 0 0 0 0 0 0 0 0 0 0 0 0 0 0 0 0 0 0 0 0 0 0 0 0
0 0 3 47 78 46 17 37 43 56 149 0 0 0 0 0 0 0 0 0 0 0 0 0 0 0 0 0 0 0 0 0 0 0 0 1 0 0 0 0 0 0 0 0 0
0 2 32 73 45 5 21 65 87 115 22 0 0 0 0 0 0 0 0 0 0 0 0 0 0 0 0 0 0 0 0 0 0 0 1 1 0 0 0 0 0 0 0 0 0
0 57 4 12 28 4 0 16 27 19 0 0 0 0 0 0 0 0 0 0 0 0 0 0 0 0 0 0 0 0 0 0 0 0 0 0 0 0 0 0 0 0 0 0 0
3 7 3 0 0 0 0 8 24 1 0 0 0 0 0 0 0 0 0 0 0 0 0 0 0 0 0 0 0 0 0 0 0 0 0 0 0 0 0 0 0 0 0 0 0
0 5 2 3 0 0 0 0 0 0 0 0 0 0 0 0 0 0 0 0 0 0 0 0 0 0 0 0 0 0 0 0 0 0 0 0 0 0 0 0 0 0 0 0 0
CIN
-0 -0 -0 -0 -0 -0 -0 -0 -0 -0 -1 -0 -0 -0 -1 -0 -0 -0 -0 -0 -0 -0 -0 -0 -0 -0 -0 -0 -0 -0 -0 -0 -0 -0 -0 -0 -0 -0 -0 -0 -0 -0 -71 -83 -145
-0 -0 -0 -0 -0 -0 -0 -0 -0 -0 -0 -0 -1 -1 -2 -0 -0 -0 -0 -0 -0 -0 -0 -0 -0 -0 -0 -0 -0 -0 -0 -0 -0 -0 -0 -0 -0 -0 -0 -0 -0 -0 -0 -0 -103
-0 -0 -0 -0 -0 -0 -0 -0 -0 -0 -0 -0 -0 -0 -1 -1 -0 -0 -0 -0 -0 -0 -0 -0 -0 -0 -0 -0 -0 -0 -0 -0 -0 -0 -0 -0 -0 -0 -0 -0 -0 -0 -0 -0 -132
-0 -0 -0 -0 -0 -0 -0 -0 -0 -0 -0 -0 -0 -0 -0 -0 -0 -0 -0 -0 -0 -0 -0 -0 -0 -0 -0 -0 -0 -0 -0 -0 -0 -0 -0 -0 -0 -0 -0 -0 -0 -0 -0 -0 -0
-0 -0 -0 -0 -0 -0 -0 -0 -0 -0 -0 -0 -0 -0 -0 -0 -0 -0 -0 -270 -0 -0 -0 -0 -0 -0 -0 -0 -0 -0 -0 -0 -0 -0 -0 -0 -0 -0 -0 -0 -0 -0 -0 -0 -0
-0 -0 -0 -0 -0 -0 -0 -0 -0 -0 -1 -0 -0 -0 -0 -0 -0 -0 -0 -0 -0 -0 -0 -0 -0 -0 -0 -0 -0 -0 -0 -0 -0 -0 -0 -0 -0 -0 -0 -0 -0 -0 -0 -0 -0
-0 -0 -0 -0 -0 -0 -0 -0 -0 -0 -0 -0 -0 -0 -0 -0 -0 -0 -0 -0 -0 -0 -0 -0 -0 -0 -0 -0 -0 -0 -0 -0 -0 -0 -0 -0 -0 -0 -0 -0 -0 -0 -0 -0 -0
-1 -0 -0 -0 -0 -0 -0 -0 -0 -0 -0 -0 -0 -0 -0 -0 -0 -0 -0 -0 -0 -0 -0 -0 -0 -0 -0 -0 -0 -0 -0 -0 -0 -0 -0 -0 -0 -0 -0 -0 -0 -0 -0 -0 -0
-0 -0 -0 -1 -1 -0 -0 -0 -0 -0 -0 -0 -0 -0 -0 -0 -0 -0 -0 -0 -0 -0 -0 -0 -0 -0 -0 -0 -0 -0 -0 -0 -0 -0 -0 -0 -0 -0 -0 -0 -0 -0 -0 -0 -0
-0 -0 -0 -0 -0 -0 -0 -0 -0 -0 -0 -0 -0 -0 -0 -0 -0 -0 -0 -0 -0 -0 -0 -0 -0 -0 -0 -0 -0 -0 -0 -0 -0 -0 -0 -0 -0 -0 -0 -0 -0 -0 -0 -0 -0
-1 -0 -0 -0 -0 -0 -1 -0 -0 -0 -0 -0 -0 -0 -0 -0 -0 -0 -0 -0 -0 -0 -0 -0 -0 -0 -0 -0 -0 -0 -0 -0 -0 -0 -0 -0 -0 -0 -0 -0 -0 -0 -0 -0 -0
-1 -0 -0 -0 -0 -0 -0 -0 -0 -0 -0 -0 -0 -0 -0 -0 -0 -0 -0 -0 -0 -0 -0 -0 -0 -0 -0 -0 -0 -0 -0 -0 -0 -0 -0 -0 -0 -0 -0 -0 -0 -0 -0 -0 -0
-0 -0 -0 -0 -0 -0 -0 -0 -0 -0 -0 -0 -0 -0 -0 -0 -0 -0 -0 -0 -0 -0 -0 -0 -0 -0 -0 -0 -0 -0 -0 -0 -0 -0 -0 -0 -0 -0 -0 -0 -0 -0 -0 -0 -0
-0 -0 -0 -0 -0 -0 -0 -0 -0 -0 -0 -0 -0 -0 -0 -0 -0 -0 -0 -0 -0 -0 -0 -0 -0 -0 -0 -0 -0 -0 -0 -0 -0 -0 -0 -0 -0 -0 -0 -0 -0 -0 -0 -0 -0
-0 -0 -0 -1 -0 -0 -0 -0 -0 -0 -0 -0 -0 -0 -0 -0 -0 -0 -0 -0 -0 -0 -0 -0 -0 -0 -0 -0 -0 -0 -0 -0 -0 -0 -0 -0 -0 -0 -0 -0 -0 -0 -0 -0 -0
-0 -0 -0 -0 -0 -0 -0 -0 -0 -0 -0 -0 -0 -0 -0 -0 -0 -0 -0 -0 -0 -0 -0 -0 -0 -0 -0 -0 -0 -0 -0 -0 -0 -0 -0 -0 -0 -0 -0 -0 -0 -0 -0 -0 -0
-0 -0 -0 -1 -0 -0 -0 -0 -0 -0 -28 -0 -0 -0 -0 -0 -0 -0 -0 -0 -0 -0 -0 -0 -0 -0 -0 -0 -0 -0 -0 -0 -0 -0 -0 -0 -0 -0 -0 -0 -0 -0 -0 -0 -0
-0 -0 -0 -0 -0 -0 -0 -0 -0 -24 -20 -35 -0 -0 -0 -0 -0 -0 -0 -0 -0 -0 -0 -0 -0 -0 -0 -0 -0 -0 -0 -0 -0 -0 -0 -0 -0 -0 -0 -0 -0 -0 -0 -0 -0
-0 -0 -0 -0 -0 -0 -0 -0 -4 -41 -6 -0 -0 -0 -0 -0 -2 -0 -0 -0 -0 -0 -0 -0 -0 -0 -0 -0 -0 -0 -0 -0 -0 -0 -0 -0 -0 -0 -0 -0 -0 -0 -0 -0 -0
-0 -0 -0 -0 -0 -0 -0 -0 -74 -55 -0 -0 -0 -0 -0 -0 -12 -0 -0 -0 -0 -0 -0 -0 -0 -0 -0 -0 -0 -0 -0 -0 -0 -0 -0 -0 -0 -0 -0 -0 -0 -0 -0 -0 -0
-0 -0 -269 -0 -0 -0 -145 -220 -120 -63 -50 -0 -0 -0 -0 -0 -18 -13 -31 -0 -0 -0 -0 -0 -0 -0 -2 -0 -0 -0 -0 -0 -0 -0 -0 -0 -0 -0 -0 -0 -0 -0 -0 -0 -0
-0 -0 -324 -26 -101 -105 -0 -0 -29 -48 -8 -0 -0 -3 -0 -0 -0 -0 -35 -31 -0 -0 -0 -0 -0 -0 -0 -0 -0 -0 -0 -0 -0 -0 -0 -0 -0 -0 -0 -0 -0 -0 -0 -0 -0
-0 -0 -252 -159 -21 -43 -67 -61 -65 -68 -38 -0 -0 -0 -0 -0 -0 -0 -0 -0 -0 -0 -0 -0 -0 -0 -0 -0 -0 -0 -0 -0 -0 -0 -0 -4 -2 -0 -0 -0 -0 -0 -0 -0 -0
-0 -44 -118 -79 -92 -138 -81 -36 -16 -34 -124 -0 -0 -0 -0 -0 -0 -0 -0 -0 -0 -0 -0 -0 -0 -0 -0 -0 -0 -0 -0 -0 -0 -0 -1 -0 -1 -0 -0 -0 -0 -0 -0 -0 -0
-0 -25 -74 -78 -58 -124 -21 -119 -36 -35 -20 -0 -0 -0 -20 -0 -0 -0 -0 -0 -0 -0 -0 -0 -0 -0 -0 -0 -0 -0 -0 -0 -0 -0 -0 -0 -0 -0 -0 -0 -0 -0 -0 -0 -0
-7 -21 -122 -2 -0 -50 -0 -40 -26 -24 -0 -0 -0 -0 -0 -0 -0 -0 -0 -0 -0 -0 -0 -0 -0 -0 -0 -0 -0 -0 -0 -0 -0 -0 -0 -0 -0 -0 -0 -0 -0 -0 -0 -0 -0
-2 -10 -25 -74 -0 -0 -0 -0 -0 -0 -0 -0 -0 -0 -0 -0 -0 -0 -0 -0 -0 -0 -0 -0 -0 -0 -0 -0 -0 -0 -0 -0 -0 -0 -0 -0 -0 -0 -0 -0 -0 -0 -0 -0 -0
Wind_Speed
21 21 23 25 25 29 31 31 30 31 29 26 27 25 24 24 25 25 25 20 14 17 21 26 31 33 29 32 31 31 39 47 41 36 33 33 21 18 17 16 18 20 11 9 6
23 21 21 22 20 24 30 29 28 31 29 29 22 21 22 22 24 21 9 10 11 15 21 24 32 33 35 36 35 40 48 49 33 33 32 34 28 23 21 18 15 12 11 7 4
21 22 21 21 20 19 25 30 28 29 29 30 17 18 19 21 21 13 15 3 8 10 21 22 27 31 38 35 39 41 54 46 35 37 32 36 41 26 26 19 18 15 17 12 10
21 20 19 19 19 18 20 18 32 30 32 31 18 16 19 15 13 15 14 7 7 9 21 23 25 34 38 43 39 43 42 36 41 47 41 37 39 40 35 30 21 20 20 20 14
22 21 19 17 18 19 19 17 21 33 33 28 17 14 17 11 5 12 22 3 10 10 16 22 26 31 40 39 35 44 36 41 38 37 43 44 49 44 43 34 24 20 19 19 20
21 19 20 16 17 17 17 17 9 33 31 27 9 11 13 4 9 17 15 10 14 15 28 28 26 25 32 29 39 36 43 38 39 40 43 48 47 39 49 41 39 30 25 19 21
20 18 17 16 15 15 13 16 7 12 28 23 8 9 12 10 11 18 13 11 17 27 39 31 24 29 23 27 32 39 34 39 42 39 43 39 43 49 51 42 45 42 32 28 24
21 18 16 16 15 14 11 9 6 9 24 10 8 11 11 9 9 8 15 9 10 23 25 29 27 29 23 22 21 30 37 44 36 37 41 34 47 44 43 40 44 40 40 38 35
19 20 20 16 15 12 12 12 8 9 11 9 11 13 15 17 13 10 17 8 11 17 26 21 25 29 26 25 27 27 36 37 35 26 29 31 41 33 26 27 35 36 32 30 26
21 23 25 22 17 16 10 8 10 14 11 9 12 18 16 10 14 5 14 6 3 6 17 24 27 28 24 24 32 30 32 29 27 21 21 29 35 30 31 34 35 30 27 27 27
28 30 27 30 25 21 24 17 13 13 7 5 8 9 20 19 12 13 5 2 19 10 21 21 26 31 27 28 29 29 29 28 24 23 24 30 34 38 33 29 27 28 27 27 28
37 34 35 36 36 28 15 13 12 14 15 5 9 7 29 23 17 20 5 5 6 14 12 21 32 31 26 26 29 31 31 31 28 26 24 27 26 26 27 26 23 23 24 23 19
40 40 41 40 37 16 15 10 14 16 14 13 4 3 14 6 16 19 6 10 14 14 16 21 20 24 23 27 30 32 30 30 28 28 25 26 30 27 26 23 21 23 23 23 21
42 42 40 41 19 17 16 16 15 11 16 12 10 8 5 5 18 14 8 11 13 11 17 23 27 26 24 28 27 35 29 32 32 23 28 23 34 28 26 25 21 22 26 29 31
41 42 40 32 20 15 14 21 17 14 16 9 11 11 9 2 13 10 10 14 14 13 15 15 18 17 22 21 20 29 29 28 27 28 26 26 29 27 24 25 26 29 31 32 34
43 42 40 28 15 4 18 22 13 15 14 8 9 9 8 5 10 8 8 16 17 18 20 21 19 21 19 22 21 25 19 20 23 24 37 29 30 30 25 27 30 30 30 31 33
46 45 39 20 17 11 20 14 14 12 13 9 9 7 6 5 6 4 3 7 13 16 23 23 22 19 19 20 19 17 18 28 33 34 37 25 29 31 24 24 26 29 28 28 26
48 47 27 15 9 18 15 12 16 14 11 13 11 9 8 5 9 4 5 7 12 16 16 20 25 20 18 18 21 20 20 26 34 36 35 27 30 24 21 21 21 18 17 17 14
48 33 28 20 7 11 12 13 16 13 16 14 12 13 14 11 10 6 11 10 10 10 17 16 22 14 15 17 18 21 23 20 23 25 28 27 26 22 20 19 18 17 16 17 16
42 35 27 16 2 9 15 17 18 16 17 18 16 16 18 14 14 13 10 17 17 12 12 15 16 17 19 19 19 20 18 26 26 32 34 30 29 28 22 20 21 20 21 20 19
32 32 23 7 10 17 20 22 24 23 21 17 18 17 16 16 16 18 17 16 18 19 12 14 17 18 17 19 24 26 24 23 23 27 34 34 31 19 17 22 24 24 22 21 20
30 29 18 16 20 21 24 23 24 27 26 17 15 12 12 14 16 16 18 18 18 18 18 18 17 19 21 22 19 19 24 26 32 32 28 30 30 16 20 22 19 21 20 20 20
34 27 18 13 24 29 28 29 29 28 24 19 16 14 12 14 16 14 14 16 14 15 15 16 20 21 20 19 17 19 18 17 20 24 31 36 31 17 22 22 21 22 22 23 24
26 26 18 15 20 25 28 29 27 22 22 20 18 11 11 14 16 16 17 18 17 14 15 16 19 22 26 21 19 20 18 19 20 26 28 29 29 32 31 26 26 26 24 26 27
20 22 19 23 22 28 26 25 27 23 18 19 21 17 14 13 14 16 17 15 16 19 17 17 21 21 21 24 25 26 28 29 29 27 31 29 30 31 26 25 27 28 28 30 33
20 22 21 25 23 26 23 25 25 21 23 22 19 15 13 15 16 15 17 19 19 18 17 18 19 20 24 24 24 28 30 30 31 32 33 33 36 23 20 23 28 31 30 34 38
15 14 18 20 22 22 25 28 23 17 18 16 13 15 15 15 15 15 17 17 16 17 17 18 16 19 24 23 27 30 26 25 23 24 26 30 25 20 23 27 30 32 31 38 41
Wind_Direction
13 11 6 1 360 348 341 340 342 338 338 335 331 336 337 331 325 315 301 292 281 272 275 261 243 243 246 243 242 244 239 235 238 239 243 235 251 280 299 292 277 285 273 274 256
9 10 8 5 5 357 343 345 345 332 340 330 343 347 345 343 330 319 263 293 259 269 263 256 235 234 238 237 238 237 235 235 240 243 248 237 248 269 282 297 288 279 290 287 242
10 7 6 5 4 3 353 339 342 336 335 327 354 352 354 353 346 353 348 190 212 236 258 253 239 230 233 236 235 237 234 237 243 246 250 248 244 263 266 276 277 286 280 281 277
9 8 7 5 4 2 358 358 330 329 319 305 351 353 354 12 21 14 1 359 169 219 246 242 233 227 231 231 235 236 238 242 246 244 250 251 248 254 258 265 276 278 279 281 287
10 9 9 8 5 1 358 356 348 288 294 273 348 352 351 17 158 10 332 78 140 172 229 232 227 226 229 234 236 235 240 240 245 249 252 254 245 250 256 260 270 282 282 278 282
9 9 7 6 4 2 359 355 342 304 282 268 10 3 360 74 43 8 17 70 128 144 216 220 224 225 232 240 233 239 238 244 250 249 248 246 248 254 247 257 265 270 278 288 283
5 4 1 359 357 356 352 354 332 345 276 316 28 6 348 181 28 354 46 79 125 212 188 214 226 221 234 237 241 237 240 244 245 244 245 248 251 248 245 260 255 258 271 279 286
1 358 355 353 350 352 343 320 277 228 297 8 19 359 346 15 170 16 120 65 115 222 221 220 224 227 239 250 248 238 237 234 246 245 247 247 247 250 255 260 256 265 270 276 278
358 357 355 351 352 345 350 285 249 36 24 48 353 339 329 289 145 145 128 50 109 238 224 230 230 230 242 241 241 240 233 241 251 260 254 246 252 264 268 267 264 269 278 281 281
360 358 355 356 356 357 340 266 47 32 46 35 353 317 290 345 311 82 133 80 55 114 243 235 233 233 238 237 233 235 237 247 253 263 263 259 261 273 271 270 269 272 280 280 278
357 355 355 351 355 357 357 21 28 18 29 35 41 348 291 289 295 270 305 138 251 272 239 238 235 231 239 241 240 243 246 252 259 265 272 270 268 272 277 277 267 272 278 280 280
346 348 346 343 341 324 28 37 32 19 356 182 185 172 239 278 283 261 254 277 266 256 263 250 234 238 247 248 245 246 248 251 258 265 271 272 275 281 292 281 267 268 278 282 285
338 336 332 329 309 15 21 41 26 3 1 358 78 22 296 317 283 273 237 259 265 259 260 256 265 252 253 247 244 245 249 253 257 268 274 273 274 281 286 292 277 275 279 284 283
329 325 329 326 358 1 7 20 15 34 358 6 20 35 45 6 280 286 243 261 275 262 263 262 261 257 257 250 254 245 253 254 261 269 271 279 273 279 281 284 286 281 280 281 282
329 321 325 335 338 345 6 350 2 9 352 29 16 18 26 87 310 283 265 263 269 266 266 270 272 275 267 262 270 260 264 263 266 269 274 276 279 281 285 280 280 282 285 286 286
322 318 318 330 338 327 310 333 3 344 338 355 5 15 21 18 319 300 278 258 270 263 269 271 278 279 276 276 286 274 275 271 271 273 263 274 275 278 284 286 287 291 292 296 296
314 309 314 321 327 347 327 338 331 329 345 337 339 0 22 46 354 326 277 265 266 269 267 272 273 279 283 276 286 291 276 263 262 263 265 278 279 280 292 297 298 297 298 301 308
309 303 321 312 307 306 320 317 309 321 324 326 315 314 329 341 314 316 313 282 277 277 287 273 265 270 282 281 279 283 277 267 264 266 270 280 277 285 303 316 316 319 319 321 331
312 323 315 306 274 296 297 285 304 309 312 309 314 295 289 309 314 304 283 280 291 289 286 283 269 285 290 287 288 281 276 286 279 281 278 279 282 292 301 315 323 321 319 315 317
319 319 310 306 270 280 280 279 293 302 303 296 298 300 281 285 294 293 284 293 281 300 292 293 285 287 289 293 288 283 290 276 277 270 270 275 278 281 292 301 306 307 309 313 315
327 317 318 308 288 277 274 277 281 288 293 296 291 296 295 284 285 284 285 290 289 284 280 296 288 292 295 293 273 276 279 283 284 278 272 273 278 295 298 302 301 305 310 313 315
329 315 331 296 278 281 279 283 282 279 285 292 296 305 297 293 289 288 283 287 284 290 283 287 293 289 290 295 297 292 280 279 271 274 280 279 278 297 304 307 313 310 311 316 318
320 319 324 294 280 278 282 282 281 278 276 287 286 293 308 295 290 292 294 299 305 302 297 295 289 289 296 299 304 294 294 292 290 285 277 276 281 291 302 306 307 308 310 312 311
330 314 324 312 285 289 287 282 280 284 275 280 288 289 300 302 299 288 286 298 301 306 313 308 295 289 284 292 297 292 295 297 294 285 285 281 285 284 290 297 301 303 307 308 309
343 322 320 299 295 285 287 285 279 280 281 274 277 277 289 307 305 294 290 295 302 296 304 306 295 298 297 294 292 289 287 288 285 286 282 287 285 289 294 297 301 303 305 305 305
344 328 319 306 302 286 283 283 282 282 273 270 272 290 299 301 301 300 288 287 290 301 303 305 303 304 297 299 300 292 291 291 289 286 285 286 286 298 298 303 301 303 303 304 304
2 1 333 311 302 295 286 279 283 282 289 285 289 291 298 307 308 306 299 301 298 298 301 304 308 307 299 304 300 293 298 297 301 301 295 288 295 299 299 300 302 305 306 305 305